Weather History for Monticello, AR

Change the Weather History Date:

Saturday, February 23, 2013

  Actual Average Record
Temperature  
Mean Temperature 43 °F -  
Max Temperature 52 °F 58 °F 84 °F (2012)
Min Temperature 34 °F 36 °F 7 °F (1963)
Degree Days  
Heating Degree Days 22    
Moisture  
Dew Point 32 °F    
Average Humidity 70    
Maximum Humidity 89    
Minimum Humidity 48    
Precipitation  
Precipitation 0.00 in - - ()
Sea Level Pressure  
Sea Level Pressure 30.02 in    
Wind  
Wind Speed 4 mph (NE)    
Max Wind Speed 12 mph    
Max Gust Speed -    
Visibility 10 miles    
Events Rain    
Averages and records for this station are not official NWS values.
T = Trace of Precipitation, MM = Missing Value Source: NWS Daily Summary

Daily Weather History Graph

Daily Weather History Graph

Search for Another Location

Airport:

Trip Planner

Search our weather history database for the weather conditions in past years. The results will help you decide how hot, cold, wet, or windy it might be!

Date:

Astronomy

Feb. 23, 2013 Rise Set
Actual Time 6:42 AM CST 5:58 PM CST
Civil Twilight 6:17 AM CST 6:24 PM CST
Nautical Twilight 5:48 AM CST 6:52 PM CST
Astronomical Twilight 5:19 AM CST 7:21 PM CST
Moon 4:12 PM CST (2/23) 5:01 AM CST (2/23)
Length of Visible Light 12h 06m
Length of Day
11h 16m
Waxing Gibbous, 95% of the Moon is Illuminated
Feb 23
Waxing Gibbous
Feb 25
Full
Mar 4
Last Quarter
Mar 11
New
Mar 19
First Quarter

Hourly Weather History & Observations

Time (CST) Temp. Windchill Dew Point Humidity Pressure Visibility Wind Dir Wind Speed Gust Speed Precip Events Conditions
12:53 AM 37.9 °F 35.5 °F 32.0 °F 79% 30.07 in 10.0 mi Variable 3.5 mph - N/A   Clear
1:53 AM 37.0 °F - 32.0 °F 82% 30.05 in 10.0 mi Calm Calm - N/A   Clear
2:53 AM 36.0 °F 33.3 °F 33.1 °F 89% 30.05 in 10.0 mi Variable 3.5 mph - N/A   Clear
3:53 AM 36.0 °F 32.1 °F 33.1 °F 89% 30.02 in 10.0 mi NNE 4.6 mph - N/A   Clear
4:53 AM 35.1 °F 31.0 °F 30.9 °F 85% 30.03 in 10.0 mi NE 4.6 mph - N/A   Clear
5:53 AM 34.0 °F 28.8 °F 30.0 °F 85% 30.03 in 10.0 mi NNE 5.8 mph - N/A   Clear
6:53 AM 34.0 °F 29.8 °F 28.9 °F 82% 30.04 in 10.0 mi NNE 4.6 mph - N/A   Clear
7:53 AM 37.0 °F 31.6 °F 30.0 °F 76% 30.06 in 10.0 mi NE 6.9 mph - N/A   Clear
8:53 AM 37.9 °F 30.5 °F 28.0 °F 68% 30.07 in 10.0 mi ENE 11.5 mph - N/A   Clear
9:53 AM 42.1 °F 37.1 °F 28.9 °F 60% 30.08 in 10.0 mi NNE 8.1 mph - N/A   Clear
10:53 AM 44.1 °F 40.8 °F 28.9 °F 55% 30.06 in 10.0 mi Variable 5.8 mph - N/A   Clear
11:53 AM 46.9 °F - 30.0 °F 52% 30.04 in 10.0 mi NNE 5.8 mph - N/A   Clear
12:53 PM 48.9 °F - 30.9 °F 50% 30.00 in 10.0 mi Variable 4.6 mph - 0.00 in Rain Light Rain
1:53 PM 51.1 °F - 32.0 °F 48% 29.99 in 10.0 mi NE 4.6 mph - 0.00 in Rain Light Rain
2:53 PM 52.0 °F - 34.0 °F 50% 29.97 in 10.0 mi Variable 4.6 mph - 0.00 in   Clear
3:53 PM 52.0 °F - 34.0 °F 50% 29.97 in 10.0 mi NE 5.8 mph - N/A   Partly Cloudy
4:53 PM 51.1 °F - 34.0 °F 52% 29.99 in 10.0 mi NE 10.4 mph - 0.00 in   Mostly Cloudy
5:53 PM 46.9 °F - 34.0 °F 61% 29.99 in 10.0 mi ENE 4.6 mph - N/A   Partly Cloudy
6:53 PM 43.0 °F 40.3 °F 35.1 °F 74% 29.99 in 10.0 mi East 4.6 mph - N/A   Clear
7:53 PM 41.0 °F - 35.1 °F 79% 29.99 in 10.0 mi Calm Calm - N/A   Clear
9:53 PM 36.0 °F - 32.0 °F 86% 30.02 in 10.0 mi Calm Calm - N/A   Clear
10:53 PM 37.0 °F - 33.1 °F 86% 30.01 in 10.0 mi Calm Calm - N/A   Clear
11:53 PM 37.0 °F - 32.0 °F 82% 30.01 in 10.0 mi Calm Calm - N/A   Clear